Home   Weather   Fresnillo   Past weeks

Flag for Mexico Past Weather in Fresnillo, Zacatecas, Mexico — Yesterday and Last 2 Weeks

Now
46 °F

Clear.


Feels Like: 44 °F
Forecast: 39 / 76 °F
Wind: 6 mph from South

Location: Zacatecas Airport

Current Time: Feb 27, 2017 at 1:29:43 am

Latest Report: Feb 27, 2017 at 12:43 am


Visibility: 8 mi

Pressure: 30.26 "Hg (23.20 "Hg at 2187m altitude)

Humidity: 25%

Dew Point: 12 °F

Location of FresnilloLocation

Past Weather in Fresnillo — Graph

°F

Fresnillo Temperature Yesterday

Maximum temperature yesterday: 77 °F (at 3:58 pm)
Minimum temperature yesterday: 43 °F (at 6:40 am)
Average temperature yesterday: 62 °F

High & Low Weather Summary for the Past Weeks

 TemperatureHumidityPressure
High79 °F (Feb 12, 3:45 pm)87% (Feb 25, 7:48 am)30.44 "Hg (Feb 25, 7:48 am)
Low27 °F (Feb 22, 5:40 am)11% (Feb 21, 4:43 pm)30.04 "Hg (Feb 23, 3:40 pm)
Average56 °F31%30.20 "Hg
* Reported Feb 12 6:44 am — Feb 26 11:41 pm, Fresnillo, Weather by CustomWeather, © 2017

Note: Actual official high and low records may vary slightly from our data, if they occured in-between our weather recording intervals... More about our weather records

Advertising

Fresnillo Weather History for the Previous 24 Hours

Scroll right to see more
 ConditionsComfort  
Time TempWeatherWind HumidityBarometerVisibility
11:41 pm
Sun, Feb 26
52 °FClear.12 mph20%30.25 "Hg8 mi
9:55 pm55 °FClear.9 mph16%30.23 "Hg8 mi
8:58 pm57 °FClear.9 mph15%30.21 "Hg8 mi
7:45 pm57 °FClear.8 mph12%30.19 "Hg8 mi
6:45 pm70 °FSunny.12 mph12%30.17 "Hg10 mi
5:45 pm75 °FSunny.22 mph11%30.15 "Hg10 mi
4:40 pm77 °FSunny.20 mph11%30.13 "Hg10 mi
3:58 pm77 °FSunny.18 mph11%30.13 "Hg10 mi
2:46 pm75 °FSunny.24 mph12%30.17 "Hg10 mi
1:45 pm75 °FSunny.17 mph11%30.20 "Hg10 mi
12:44 pm73 °FSunny.12 mph12%30.23 "Hg10 mi
11:40 am70 °FSunny.12 mph13%30.26 "Hg10 mi
10:40 am66 °FSunny.12 mph18%30.28 "Hg10 mi
9:45 am61 °FSunny.12 mph25%30.28 "Hg10 mi
8:41 am52 °FSunny.12 mph38%30.26 "Hg10 mi
7:46 am43 °FSunny.9 mph42%30.23 "Hg10 mi
6:40 am43 °FClear.12 mph39%30.21 "Hg8 mi
5:44 am45 °FClear.12 mph37%30.20 "Hg10 mi
Weather by CustomWeather, © 2017

See weather overviewHow to use our weather pages